Simultaneous Nadir Overpasses (SNOs) Predictions

Prediction of SNOs between GOES-16 and METOP-B Satellite Orbit:

Table of predicted SNOs for the next 14.0 days since TLE Epoch: 11/22/2019
Index Date Time (GOES-16) GOES-16 Lat,Lon METOP-B Lat,Lon Distance(km) Time Diff (sec)
1 11/23/2019 02:42:22 -0.02, -75.19 -0.58, -77.71 287.22 80
2 11/24/2019 02:19:04 -0.02, -75.19 0.54, -72.71 282.14 80
3 11/25/2019 14:40:37 0.02, -75.21 0.48, -77.28 235.79 80
4 11/26/2019 14:17:19 0.02, -75.21 -0.64, -72.29 333.81 80
5 11/28/2019 02:39:00 -0.02, -75.21 -0.37, -76.88 189.98 80
6 11/29/2019 02:15:42 -0.01, -75.22 0.75, -71.89 379.88 80
7 11/30/2019 14:37:15 0.01, -75.25 0.27, -76.45 137.20 80
8 12/01/2019 14:13:56 0.01, -75.26 -0.86, -71.46 433.06 80
9 12/03/2019 02:35:38 -0.00, -75.27 -0.17, -76.06 89.55 80
10 12/04/2019 02:12:19 -0.00, -75.29 0.95, -71.07 481.19 80
11 12/05/2019 14:33:52 -0.00, -75.33 0.05, -75.63 34.46 80




NCC Satellite Simultaneous Nadir Overpasses (SNOs) Prediction Service
